Regional Weather Roundup
Issued by NWS Little Rock, AR

Home | Current Version | Previous Version | Graphics & Text | Print | Product List | Glossary On
Versions: 1 2 3 4 5 6 7 8 9 10 11 12 13 14 15 16 17 18 19 20 21 22 23 24 25 26 27 28 29 30 31 32 33 34 35 36 37 38 39 40 41 42 43 44 45 46 47 48 49 50
000
ASUS44 KLZK 191505
RWRLZK

WEATHER ROUNDUP FOR ARKANSAS
NATIONAL WEATHER SERVICE LITTLE ROCK AR
1000 AM CDT SUN APR 19 2015

NOTE: "FAIR" INDICATES FEW OR NO CLOUDS BELOW 12,000 FEET WITH NO
SIGNIFICANT WEATHER AND/OR OBSTRUCTIONS TO VISIBILITY.

ARZ001-003-010-029-191600-
NORTHWEST ARKANSAS

CITY           SKY/WX    TMP DP  RH WIND       PRES   REMARKS
FAYETTEVILLE   CLOUDY    59  54  83 CALM      29.74R
FORT SMITH     MOSUNNY   65  55  70 W5        29.73R
HARRISON       CLOUDY    59  55  87 W9        29.71R
BENTONVILLE    CLOUDY    59  52  77 CALM      29.74R
ROGERS         CLOUDY    60  53  77 S5        29.74R
SILOAM SPGS    CLOUDY    61  50  67 SW3       29.76R
HIGHFILL       CLOUDY    59  53  80 S5        29.74R
SPRINGDALE     MOSUNNY   59  54  82 S7        29.76R
$$

ARZ004-005-016-191600-
NORTH CENTRAL ARKANSAS

CITY           SKY/WX    TMP DP  RH WIND       PRES   REMARKS
BATESVILLE     CLOUDY    66  63  88 W9        29.65F
FLIPPIN        PTSUNNY   64 N/A N/A W3        29.66R
MTN HOME       PTSUNNY   65  58  78 W5        29.67R
$$

ARZ040-041-191600-
WEST CENTRAL ARKANSAS

CITY           SKY/WX    TMP DP  RH WIND       PRES   REMARKS
MENA           SUNNY     68  61  77 W6        29.74S
MOUNT IDA      MOSUNNY   66  58  75 CALM      29.70R
$$

ARZ009-017-025-026-028-191600-
NORTHEAST ARKANSAS

CITY           SKY/WX    TMP DP  RH WIND       PRES   REMARKS
CORNING          N/A     66  64  94 W12       29.61F
JONESBORO      PTSUNNY   67  63  87 W12       29.61F
NEWPORT        PTSUNNY   69  63  81 NW15G21   29.64F
WALNUT RIDGE   CLOUDY    66  61  82 W9        29.62F
BLYTHEVILLE    CLOUDY    68  66  93 W9        29.60F
$$

ARZ022-023-033-042-044-191600-
CENTRAL ARKANSAS

CITY           SKY/WX    TMP DP  RH WIND       PRES   REMARKS
LITTLE ROCK    CLOUDY    67  60  78 W10       29.70F
N LITTLE ROCK  CLOUDY    64  62  93 W6        29.70F
JACKSONVILLE   CLOUDY    66  64  93 W9        29.69R
SEARCY         CLOUDY    66  63  90 SW6       29.68F
HOT SPRINGS    PTSUNNY   65  59  81 VRB5      29.72R
RUSSELLVILLE   CLOUDY    65  61  87 NW9       29.71R
CLINTON        FAIR      66  59  77 NW3       29.69S
$$

ARZ036-191600-
EAST ARKANSAS

CITY           SKY/WX    TMP DP  RH WIND       PRES   REMARKS
WEST MEMPHIS   CLOUDY    67  65  93 VRB7G18   29.61F
$$

ARZ050-053-066-070-073-191600-
SOUTHWEST ARKANSAS

CITY           SKY/WX    TMP DP  RH WIND       PRES   REMARKS
ARKADELPHIA    FAIR      69  62  78 W6        29.74R
CAMDEN         SUNNY     68  57  68 E6        29.75R
TEXARKANA      SUNNY     66  59  78 SW5       29.76F
EL DORADO      SUNNY     67  59  75 SW6       29.76R
DE QUEEN       SUNNY     67  61  81 SW8       29.72F
$$

ARZ056-057-069-191600-
SOUTHEAST ARKANSAS

CITY           SKY/WX    TMP DP  RH WIND       PRES   REMARKS
PINE BLUFF     LGT RAIN  65  60  84 W8        29.70F
STUTTGART      CLOUDY    66  63  88 W14       29.69R
MONTICELLO     MOSUNNY   65  61  87 W7        29.71F

$$




USA.gov is the U.S. government's official web portal to all federal, state and local government web resources and services.